| time (UTC) | temp C | wind direction | speed KPH | gust KPH | rain 1hr cm | rain 24hr cm | rain mn cm | humidity % | barometer mb |
| 20260509144045 | 16 | 81 | 1.6 | 4.8 | 0.00 | 0.00 | 0.00 | 58 | 1018.3 |
| 20260509143025 | 16 | 76 | 3.2 | 8.0 | 0.00 | 0.00 | 0.00 | 58 | 1018.0 |
| 20260509142020 | 16 | 70 | 1.6 | 4.8 | 0.00 | 0.00 | 0.00 | 58 | 1018.0 |
| 20260509141024 | 16 | 64 | 1.6 | 4.8 | 0.00 | 0.00 | 0.00 | 58 | 1018.0 |
| 20260509140031 | 16 | 84 | 4.8 | 8.0 | 0.00 | 0.00 | 0.00 | 58 | 1018.3 |
| 20260509135029 | 16 | 82 | 3.2 | 4.8 | 0.00 | 0.00 | 0.00 | 58 | 1018.3 |
| 20260509134023 | 17 | 69 | 6.4 | 11.3 | 0.00 | 0.00 | 0.00 | 57 | 1018.4 |
| 20260509133024 | 16 | 110 | 1.6 | 4.8 | 0.00 | 0.00 | 0.00 | 58 | 1018.3 |
| 20260509132023 | 17 | 79 | 1.6 | 4.8 | 0.00 | 0.00 | 0.00 | 58 | 1018.4 |
| 20260509131022 | 17 | 92 | 1.6 | 4.8 | 0.00 | 0.00 | 0.00 | 57 | 1018.7 |
| 20260509130022 | 16 | 74 | 1.6 | 4.8 | 0.00 | 0.00 | 0.00 | 58 | 1018.3 |
| 20260509125022 | 16 | 86 | 3.2 | 8.0 | 0.00 | 0.00 | 0.00 | 59 | 1018.3 |
| 20260509124024 | 16 | 102 | 3.2 | 9.7 | 0.00 | 0.00 | 0.00 | 59 | 1018.3 |
| 20260509123022 | 17 | 80 | 4.8 | 9.7 | 0.00 | 0.00 | 0.00 | 58 | 1018.4 |
| 20260509122026 | 17 | 83 | 3.2 | 4.8 | 0.00 | 0.00 | 0.00 | 57 | 1018.4 |
| 20260509121024 | 17 | 75 | 1.6 | 4.8 | 0.00 | 0.00 | 0.00 | 57 | 1019.1 |
| 20260509120027 | 17 | 69 | 6.4 | 9.7 | 0.00 | 0.00 | 0.00 | 57 | 1019.1 |
| 20260509115040 | 16 | 75 | 3.2 | 4.8 | 0.00 | 0.00 | 0.00 | 58 | 1019.1 |
| 20260509114022 | 17 | 71 | 3.2 | 4.8 | 0.00 | 0.00 | 0.00 | 57 | 1019.1 |
| 20260509113032 | 17 | 56 | 3.2 | 4.8 | 0.00 | 0.00 | 0.00 | 56 | 1018.7 |
| 20260509112023 | 16 | 66 | 1.6 | 4.8 | 0.00 | 0.00 | 0.00 | 59 | 1018.7 |
| 20260509111049 | 17 | 91 | 1.6 | 4.8 | 0.00 | 0.00 | 0.00 | 56 | 1019.1 |
| 20260509110030 | 16 | 59 | 3.2 | 8.0 | 0.00 | 0.00 | 0.00 | 58 | 1018.7 |
| 20260509105027 | 17 | 67 | 3.2 | 9.7 | 0.00 | 0.00 | 0.00 | 57 | 1018.7 |
| 20260509104052 | 18 | 74 | 3.2 | 9.7 | 0.00 | 0.00 | 0.00 | 55 | 1018.8 |
| 20260509103042 | 17 | 54 | 0.0 | 3.2 | 0.00 | 0.00 | 0.00 | 56 | 1019.1 |
| 20260509102021 | 17 | 83 | 1.6 | 4.8 | 0.00 | 0.00 | 0.00 | 58 | 1019.1 |
| 20260509101025 | 16 | 90 | 4.8 | 11.3 | 0.00 | 0.00 | 0.00 | 60 | 1019.1 |
| 20260509100526 | 16 | 75 | 4.8 | 8.0 | 0.00 | 0.00 | 0.00 | 63 | 1019.1 |
| 20260509095041 | 16 | 67 | 3.2 | 9.7 | 0.00 | 0.00 | 0.00 | 63 | 1019.1 |
| 20260509094027 | 16 | 102 | 3.2 | 8.0 | 0.00 | 0.00 | 0.00 | 61 | 1019.1 |
| 20260509093041 | 16 | 54 | 4.8 | 9.7 | 0.00 | 0.00 | 0.00 | 62 | 1019.4 |
| 20260509092038 | 16 | 74 | 3.2 | 8.0 | 0.00 | 0.00 | 0.00 | 63 | 1019.4 |
| 20260509091051 | 16 | 72 | 4.8 | 9.7 | 0.00 | 0.00 | 0.00 | 62 | 1019.4 |
| 20260509090022 | 15 | 103 | 8.0 | 11.3 | 0.00 | 0.00 | 0.00 | 64 | 1019.4 |
| 20260509085054 | 15 | 68 | 6.4 | 9.7 | 0.00 | 0.00 | 0.00 | 64 | 1019.4 |
| 20260509084057 | 16 | 82 | 4.8 | 9.7 | 0.00 | 0.00 | 0.00 | 63 | 1019.5 |
| 20260509083023 | 16 | 73 | 3.2 | 4.8 | 0.00 | 0.00 | 0.00 | 63 | 1019.5 |
| 20260509082025 | 16 | 84 | 3.2 | 8.0 | 0.00 | 0.00 | 0.00 | 62 | 1019.5 |
| 20260509081039 | 16 | 69 | 4.8 | 9.7 | 0.00 | 0.00 | 0.00 | 63 | 1019.8 |
| 20260509080022 | 15 | 81 | 3.2 | 4.8 | 0.00 | 0.00 | 0.00 | 63 | 1019.5 |
| 20260509075019 | 16 | 97 | 3.2 | 6.4 | 0.00 | 0.00 | 0.00 | 64 | 1019.5 |
| 20260509074032 | 15 | 59 | 3.2 | 8.0 | 0.00 | 0.00 | 0.00 | 64 | 1019.5 |
| 20260509073116 | 15 | 92 | 4.8 | 8.0 | 0.00 | 0.00 | 0.00 | 65 | 1019.5 |
| 20260509072024 | 15 | 86 | 3.2 | 8.0 | 0.00 | 0.00 | 0.00 | 65 | 1019.5 |
| 20260509071021 | 15 | 64 | 1.6 | 4.8 | 0.00 | 0.00 | 0.00 | 64 | 1019.5 |
| 20260509070023 | 14 | 93 | 3.2 | 8.0 | 0.00 | 0.00 | 0.00 | 67 | 1019.1 |
| 20260509065020 | 13 | 79 | 3.2 | 6.4 | 0.00 | 0.00 | 0.00 | 68 | 1019.2 |
| 20260509064029 | 13 | 85 | 4.8 | 9.7 | 0.00 | 0.00 | 0.00 | 70 | 1019.1 |
| 20260509063026 | 13 | 77 | 3.2 | 6.4 | 0.00 | 0.00 | 0.00 | 70 | 1019.1 |
| 20260509062021 | 13 | 86 | 3.2 | 9.7 | 0.00 | 0.00 | 0.00 | 71 | 1019.2 |
| 20260509061025 | 13 | 66 | 3.2 | 6.4 | 0.00 | 0.00 | 0.00 | 72 | 1019.2 |
| 20260509060031 | 12 | 62 | 3.2 | 6.4 | 0.00 | 0.00 | 0.00 | 74 | 1019.1 |
| 20260509055023 | 12 | 60 | 4.8 | 8.0 | 0.00 | 0.00 | 0.00 | 75 | 1019.2 |
| 20260509054019 | 12 | 71 | 3.2 | 8.0 | 0.00 | 0.00 | 0.00 | 75 | 1018.8 |
| 20260509053025 | 12 | 72 | 1.6 | 4.8 | 0.00 | 0.00 | 0.00 | 76 | 1019.2 |
| 20260509052020 | 12 | 124 | 0.0 | 0.0 | 0.00 | 0.00 | 0.00 | 78 | 1019.2 |
| 20260509051020 | 11 | 80 | 0.0 | 1.6 | 0.00 | 0.00 | 0.00 | 81 | 1019.2 |
| 20260509050033 | 10 | 0.0 | 0.0 | 0.00 | 0.00 | 0.00 | 88 | 1019.1 | |
| 20260509045032 | 8 | 91 | 0.0 | 1.6 | 0.00 | 0.00 | 0.00 | 92 | 1019.0 |
| 20260509044026 | 7 | 109 | 0.0 | 0.0 | 0.00 | 0.00 | 0.00 | 94 | 1018.6 |
| 20260509043042 | 7 | 74 | 0.0 | 0.0 | 0.00 | 0.00 | 0.00 | 95 | 1019.0 |
| 20260509042030 | 7 | 0.0 | 0.0 | 0.00 | 0.00 | 0.00 | 95 | 1019.0 | |
| 20260509041027 | 6 | 0.0 | 0.0 | 0.00 | 0.00 | 0.00 | 95 | 1018.7 | |
| 20260509040039 | 6 | 0.0 | 0.0 | 0.00 | 0.00 | 0.00 | 95 | 1018.7 | |
| 20260509035029 | 6 | 0.0 | 0.0 | 0.00 | 0.00 | 0.00 | 95 | 1018.6 | |
| 20260509034045 | 6 | 0.0 | 0.0 | 0.00 | 0.00 | 0.00 | 95 | 1019.0 | |
| 20260509033029 | 6 | 0.0 | 0.0 | 0.00 | 0.00 | 0.00 | 95 | 1018.6 | |
| 20260509032027 | 6 | 91 | 0.0 | 1.6 | 0.00 | 0.00 | 0.00 | 95 | 1018.7 |
| 20260509031027 | 6 | 0.0 | 0.0 | 0.00 | 0.00 | 0.00 | 95 | 1018.7 | |
| 20260509030044 | 6 | 0.0 | 0.0 | 0.00 | 0.00 | 0.00 | 94 | 1019.0 | |
| 20260509025020 | 7 | 0.0 | 0.0 | 0.00 | 0.00 | 0.00 | 94 | 1019.0 | |
| 20260509024022 | 7 | 0.0 | 0.0 | 0.00 | 0.00 | 0.00 | 94 | 1019.0 | |
| 20260509023025 | 7 | 0.0 | 0.0 | 0.00 | 0.00 | 0.00 | 94 | 1019.0 | |
| 20260509022022 | 7 | 0.0 | 0.0 | 0.00 | 0.00 | 0.00 | 94 | 1019.1 | |
| 20260509021053 | 7 | 0.0 | 0.0 | 0.00 | 0.00 | 0.00 | 94 | 1018.8 | |
| 20260509020028 | 7 | 0.0 | 0.0 | 0.00 | 0.00 | 0.00 | 94 | 1019.1 | |
| 20260509015044 | 7 | 0.0 | 0.0 | 0.00 | 0.00 | 0.00 | 94 | 1019.0 | |
| 20260509014049 | 7 | 0.0 | 0.0 | 0.00 | 0.00 | 0.00 | 93 | 1019.0 | |
| 20260509013021 | 7 | 0.0 | 0.0 | 0.00 | 0.00 | 0.00 | 93 | 1019.0 | |
| 20260509012020 | 7 | 0.0 | 0.0 | 0.00 | 0.00 | 0.00 | 93 | 1019.0 | |
| 20260509011024 | 7 | 0.0 | 0.0 | 0.00 | 0.00 | 0.00 | 93 | 1019.0 | |
| 20260509010026 | 7 | 0.0 | 0.0 | 0.00 | 0.03 | 0.00 | 93 | 1019.0 | |
| 20260509005028 | 7 | 0.0 | 0.0 | 0.00 | 0.03 | 0.00 | 93 | 1019.1 | |
| 20260509004028 | 7 | 0.0 | 0.0 | 0.00 | 0.03 | 0.00 | 93 | 1019.4 | |
| 20260509003021 | 7 | 0.0 | 0.0 | 0.00 | 0.03 | 0.00 | 93 | 1019.1 | |
| 20260509002020 | 7 | 0.0 | 0.0 | 0.00 | 0.03 | 0.00 | 93 | 1019.1 | |
| 20260509001020 | 7 | 0.0 | 0.0 | 0.00 | 0.03 | 0.00 | 93 | 1019.1 | |
| 20260509000021 | 7 | 0.0 | 0.0 | 0.00 | 0.03 | 0.00 | 92 | 1019.1 | |
| 20260508235042 | 7 | 0.0 | 0.0 | 0.00 | 0.03 | 0.00 | 92 | 1019.1 | |
| 20260508234024 | 7 | 0.0 | 0.0 | 0.00 | 0.03 | 0.00 | 92 | 1019.1 | |
| 20260508233051 | 7 | 106 | 0.0 | 0.0 | 0.00 | 0.03 | 0.00 | 92 | 1019.4 |
| 20260508232026 | 7 | 0.0 | 0.0 | 0.00 | 0.03 | 0.00 | 92 | 1019.6 | |
| 20260508231042 | 7 | 0.0 | 0.0 | 0.00 | 0.03 | 0.00 | 92 | 1019.2 | |
| 20260508230029 | 7 | 0.0 | 0.0 | 0.00 | 0.03 | 0.00 | 92 | 1019.2 | |
| 20260508225020 | 7 | 0.0 | 0.0 | 0.00 | 0.03 | 0.00 | 92 | 1019.1 | |
| 20260508224057 | 8 | 122 | 0.0 | 0.0 | 0.00 | 0.03 | 0.00 | 92 | 1019.1 |
| 20260508223021 | 8 | 62 | 0.0 | 0.0 | 0.00 | 0.03 | 0.00 | 92 | 1019.1 |
| 20260508222020 | 7 | 0.0 | 0.0 | 0.00 | 0.03 | 0.00 | 91 | 1019.0 | |
| 20260508221020 | 7 | 0.0 | 0.0 | 0.00 | 0.03 | 0.00 | 91 | 1019.0 | |
| 20260508220047 | 8 | 0.0 | 0.0 | 0.00 | 0.03 | 0.00 | 91 | 1019.1 | |
| 20260508215026 | 8 | 0.0 | 0.0 | 0.00 | 0.03 | 0.03 | 90 | 1019.1 | |
| 20260508214024 | 8 | 0.0 | 0.0 | 0.00 | 0.03 | 0.03 | 90 | 1019.1 | |
| 20260508213021 | 8 | 0.0 | 0.0 | 0.00 | 0.03 | 0.03 | 90 | 1018.8 | |
| 20260508212022 | 8 | 0.0 | 0.0 | 0.00 | 0.03 | 0.03 | 89 | 1018.8 | |
| 20260508211019 | 8 | 98 | 0.0 | 0.0 | 0.00 | 0.03 | 0.03 | 89 | 1018.8 |
| 20260508210047 | 9 | 0.0 | 0.0 | 0.00 | 0.03 | 0.03 | 89 | 1018.8 | |
| 20260508205032 | 8 | 75 | 0.0 | 0.0 | 0.00 | 0.03 | 0.03 | 89 | 1018.6 |
| 20260508204021 | 8 | 0.0 | 0.0 | 0.00 | 0.03 | 0.03 | 88 | 1018.3 | |
| 20260508203041 | 9 | 0.0 | 0.0 | 0.00 | 0.03 | 0.03 | 88 | 1018.6 | |
| 20260508202026 | 9 | 0.0 | 0.0 | 0.00 | 0.03 | 0.03 | 87 | 1018.6 | |
| 20260508201110 | 10 | 0.0 | 0.0 | 0.00 | 0.03 | 0.03 | 86 | 1018.4 | |
| 20260508200026 | 10 | 0.0 | 0.0 | 0.00 | 0.03 | 0.03 | 86 | 1018.0 | |
| 20260508195022 | 10 | 0.0 | 0.0 | 0.00 | 0.03 | 0.03 | 86 | 1018.0 | |
| 20260508194040 | 10 | 101 | 0.0 | 1.6 | 0.00 | 0.03 | 0.03 | 86 | 1018.0 |
| 20260508193028 | 10 | 81 | 0.0 | 1.6 | 0.00 | 0.03 | 0.03 | 86 | 1018.0 |
| 20260508192022 | 11 | 0.0 | 0.0 | 0.00 | 0.03 | 0.03 | 85 | 1018.2 | |
| 20260508191028 | 11 | 0.0 | 0.0 | 0.00 | 0.03 | 0.03 | 83 | 1017.8 | |
| 20260508190022 | 11 | 0.0 | 0.0 | 0.00 | 0.03 | 0.03 | 82 | 1017.6 | |
| 20260508185048 | 12 | 75 | 0.0 | 0.0 | 0.00 | 0.03 | 0.03 | 81 | 1017.6 |
| 20260508184044 | 12 | 74 | 0.0 | 1.6 | 0.00 | 0.03 | 0.03 | 80 | 1017.6 |
| 20260508183025 | 12 | 83 | 0.0 | 1.6 | 0.00 | 0.03 | 0.03 | 79 | 1017.3 |
| 20260508182025 | 12 | 102 | 0.0 | 1.6 | 0.00 | 0.03 | 0.03 | 78 | 1017.2 |
| 20260508181019 | 12 | 81 | 0.0 | 1.6 | 0.00 | 0.03 | 0.03 | 77 | 1017.2 |
| 20260508180022 | 13 | 64 | 0.0 | 4.8 | 0.00 | 0.03 | 0.03 | 76 | 1017.2 |
| 20260508175119 | 13 | 79 | 0.0 | 1.6 | 0.00 | 0.03 | 0.03 | 74 | 1017.0 |
| 20260508174030 | 13 | 93 | 1.6 | 3.2 | 0.00 | 0.03 | 0.03 | 74 | 1017.0 |
| 20260508173029 | 14 | 73 | 1.6 | 6.4 | 0.00 | 0.03 | 0.03 | 74 | 1016.8 |
| 20260508172033 | 14 | 86 | 1.6 | 6.4 | 0.00 | 0.03 | 0.03 | 73 | 1016.7 |
| 20260508171031 | 15 | 67 | 1.6 | 4.8 | 0.00 | 0.03 | 0.03 | 72 | 1016.7 |
| 20260508170022 | 15 | 76 | 3.2 | 4.8 | 0.00 | 0.03 | 0.03 | 71 | 1016.7 |
| 20260508165022 | 15 | 53 | 1.6 | 4.8 | 0.00 | 0.03 | 0.03 | 71 | 1016.7 |
| 20260508164023 | 15 | 87 | 3.2 | 4.8 | 0.00 | 0.03 | 0.03 | 70 | 1016.7 |
| 20260508163020 | 16 | 90 | 3.2 | 4.8 | 0.00 | 0.03 | 0.03 | 69 | 1016.7 |
| 20260508162025 | 16 | 118 | 0.0 | 3.2 | 0.00 | 0.03 | 0.03 | 67 | 1016.7 |
| 20260508161031 | 16 | 43 | 0.0 | 4.8 | 0.00 | 0.03 | 0.03 | 66 | 1016.8 |
| 20260508160047 | 17 | 117 | 0.0 | 3.2 | 0.00 | 0.03 | 0.03 | 65 | 1016.8 |
| 20260508155021 | 17 | 57 | 0.0 | 4.8 | 0.00 | 0.03 | 0.03 | 64 | 1016.8 |
| 20260508154022 | 17 | 352 | 0.0 | 3.2 | 0.00 | 0.03 | 0.03 | 65 | 1016.8 |
| 20260508153024 | 17 | 76 | 0.0 | 4.8 | 0.00 | 0.03 | 0.03 | 64 | 1016.8 |
| 20260508152053 | 17 | 120 | 1.6 | 4.8 | 0.00 | 0.03 | 0.03 | 63 | 1016.8 |
| 20260508151024 | 17 | 71 | 1.6 | 4.8 | 0.00 | 0.03 | 0.03 | 63 | 1016.5 |
| 20260508150026 | 18 | 94 | 0.0 | 3.2 | 0.00 | 0.03 | 0.03 | 61 | 1016.6 |
| 20260508145022 | 17 | 79 | 1.6 | 4.8 | 0.00 | 0.03 | 0.03 | 62 | 1016.6 |